Weather History for Bay City, TX

Change the Weather History Date:

Thursday, August 8, 2013

  Actual Average (KLBX) Record (KLBX)
Temperature  
Mean Temperature 86 °F -  
Max Temperature 96 °F 90 °F 98 °F (2003)
Min Temperature 77 °F 72 °F 70 °F (2004)
Cooling Degree Days 22    
Growing Degree Days 36 (Base 50)    
Moisture  
Dew Point 75 °F    
Average Humidity 71    
Maximum Humidity 100    
Minimum Humidity 40    
Precipitation  
Precipitation 0.00 in - - ()
Sea Level Pressure  
Sea Level Pressure 29.90 in    
Wind  
Wind Speed 7 mph (South)    
Max Wind Speed 15 mph    
Max Gust Speed 20 mph    
Visibility 7 miles    
Events      
Averages and records for this station are not official NWS values.
T = Trace of Precipitation, MM = Missing Value Source: NWS Daily Summary

Daily Weather History Graph

Daily Weather History Graph

Search for Another Location

Airport:

Trip Planner

Search our weather history database for the weather conditions in past years. The results will help you decide how hot, cold, wet, or windy it might be!

Date:

Astronomy

Aug. 08, 2013 Rise Set
Actual Time 6:48 AM CDT 8:09 PM CDT
Civil Twilight 6:23 AM CDT 8:34 PM CDT
Nautical Twilight 5:53 AM CDT 9:04 PM CDT
Astronomical Twilight 5:21 AM CDT 9:35 PM CDT
Moon 8:22 AM CDT (8/8) 9:04 PM CDT (8/8)
Length of Visible Light 14h 11m
Length of Day
13h 20m
Waxing Crescent, 3% of the Moon is Illuminated
Aug 8
Waxing Crescent
Aug 14
First Quarter
Aug 20
Full
Aug 28
Last Quarter
Sep 5
New

Hourly Weather History & Observations

Time (CDT) Temp. Heat Index Dew Point Humidity Pressure Visibility Wind Dir Wind Speed Gust Speed Precip Events Conditions
12:15 AM 81.9 °F 90.0 °F 77.2 °F 86% 29.92 in 7.0 mi SSE 8.1 mph - N/A   Clear
12:35 AM 81.9 °F 90.0 °F 77.2 °F 86% 29.92 in 7.0 mi SSE 9.2 mph - N/A   Clear
12:55 AM 81.9 °F 89.7 °F 77.0 °F 85% 29.91 in 7.0 mi South 8.1 mph - N/A   Clear
1:15 AM 81.5 °F 89.0 °F 76.8 °F 86% 29.92 in 7.0 mi South 6.9 mph - N/A   Clear
1:35 AM 81.0 °F 87.5 °F 76.5 °F 86% 29.92 in 7.0 mi SSE 5.8 mph - N/A   Clear
1:55 AM 80.6 °F 86.8 °F 76.3 °F 87% 29.91 in 7.0 mi South 5.8 mph - N/A   Clear
2:15 AM 79.7 °F - 78.4 °F 96% 29.90 in 7.0 mi South 4.6 mph - N/A   Clear
2:35 AM 78.8 °F - 78.8 °F 100% 29.90 in 7.0 mi South 5.8 mph - N/A   Clear
2:55 AM 78.4 °F - 78.4 °F 100% 29.90 in 7.0 mi South 4.6 mph - N/A   Clear
3:15 AM 78.8 °F - 78.8 °F 100% 29.89 in 7.0 mi South 4.6 mph - N/A   Clear
3:35 AM 78.6 °F - 78.6 °F 100% 29.89 in 7.0 mi Calm Calm - N/A   Clear
3:55 AM 78.3 °F - 78.3 °F 100% 29.89 in 7.0 mi Calm Calm - N/A   Clear
4:15 AM 77.7 °F - 77.7 °F 100% 29.89 in 7.0 mi South 3.5 mph - N/A   Clear
4:35 AM - - - N/A% 29.88 in 7.0 mi SSW 3.5 mph - N/A   Clear
4:55 AM - - - N/A% 29.88 in 5.0 mi Calm Calm - N/A   Haze
5:15 AM - - - N/A% 29.88 in 4.0 mi Calm Calm - N/A   Haze
5:35 AM - - - N/A% 29.88 in 1.5 mi Calm Calm - N/A   Scattered Clouds
5:55 AM - - - N/A% 29.88 in 5.0 mi Calm Calm - N/A   Haze
6:15 AM - - - N/A% 29.88 in 5.0 mi Calm Calm - N/A   Haze
6:35 AM - - - N/A% 29.89 in 5.0 mi Calm Calm - N/A   Haze
6:55 AM - - - N/A% 29.89 in 5.0 mi SSW 3.5 mph - N/A   Haze
7:15 AM - - - N/A% 29.90 in 5.0 mi Calm Calm - N/A   Haze
7:35 AM - - - N/A% 29.91 in 5.0 mi Calm Calm - N/A   Haze
7:55 AM 78.8 °F - 78.8 °F 100% 29.90 in 5.0 mi South 3.5 mph - N/A   Mostly Cloudy
8:15 AM 81.5 °F 92.6 °F 81.5 °F 100% 29.91 in 5.0 mi South 5.8 mph - N/A   Scattered Clouds
8:35 AM 83.3 °F 98.5 °F 82.2 °F 97% 29.92 in 7.0 mi South 6.9 mph - N/A   Clear
8:55 AM 85.1 °F 98.0 °F 79.2 °F 82% 29.92 in 7.0 mi SSW 12.7 mph 16.1 mph N/A   Clear
9:15 AM 86.4 °F 96.4 °F 75.9 °F 71% 29.92 in 7.0 mi SSW 10.4 mph - N/A   Scattered Clouds
9:35 AM 88.0 °F 97.5 °F 75.0 °F 65% 29.92 in 7.0 mi SW 8.1 mph - N/A   Scattered Clouds
9:55 AM 89.2 °F 99.0 °F 74.8 °F 62% 29.93 in 7.0 mi SW 10.4 mph - N/A   Mostly Cloudy
10:15 AM 88.3 °F 97.4 °F 74.1 °F 63% 29.93 in 7.0 mi SW 9.2 mph - N/A   Mostly Cloudy
10:35 AM 89.1 °F 97.0 °F 72.9 °F 59% 29.93 in 7.0 mi SW 9.2 mph - N/A   Mostly Cloudy
10:55 AM 90.9 °F 98.9 °F 72.5 °F 55% 29.94 in 7.0 mi South 9.2 mph - N/A   Scattered Clouds
11:15 AM 92.1 °F 99.9 °F 72.1 °F 52% 29.94 in 7.0 mi SW 10.4 mph - N/A   Scattered Clouds
11:35 AM 92.3 °F 99.7 °F 71.6 °F 51% 29.94 in 7.0 mi South 9.2 mph 18.4 mph N/A   Scattered Clouds
11:55 AM 92.8 °F 99.7 °F 71.2 °F 49% 29.93 in 7.0 mi South 9.2 mph - N/A   Clear
12:15 PM 93.4 °F 100.3 °F 71.2 °F 48% 29.93 in 7.0 mi SSW 11.5 mph - N/A   Clear
12:35 PM 94.3 °F 101.6 °F 71.1 °F 47% 29.93 in 10.0 mi SW 9.2 mph - N/A   Clear
12:55 PM 94.6 °F 101.8 °F 70.7 °F 46% 29.92 in 7.0 mi SW 6.9 mph - N/A   Clear
1:15 PM 95.2 °F 102.3 °F 70.9 °F 45% 29.91 in 7.0 mi SSW 9.2 mph - N/A   Clear
1:35 PM 96.4 °F 103.0 °F 70.2 °F 42% 29.91 in 7.0 mi SW 4.6 mph 9.2 mph N/A   Clear
1:55 PM 96.8 °F 102.5 °F 68.9 °F 40% 29.91 in 10.0 mi South 5.8 mph 17.3 mph N/A   Clear
2:15 PM 96.8 °F 104.4 °F 71.1 °F 43% 29.90 in 7.0 mi SSE 9.2 mph 19.6 mph N/A   Clear
2:35 PM 96.1 °F 104.9 °F 72.5 °F 46% 29.90 in 7.0 mi South 12.7 mph 17.3 mph N/A   Scattered Clouds
2:55 PM 95.7 °F 104.8 °F 72.7 °F 47% 29.90 in 7.0 mi South 11.5 mph 19.6 mph N/A   Scattered Clouds
3:15 PM 95.4 °F 104.0 °F 72.5 °F 47% 29.90 in 7.0 mi South 12.7 mph 16.1 mph N/A   Clear
3:35 PM 95.5 °F 103.7 °F 71.6 °F 46% 29.89 in 7.0 mi South 13.8 mph 19.6 mph N/A   Clear
3:55 PM 95.7 °F 102.8 °F 70.9 °F 44% 29.88 in 10.0 mi SSE 11.5 mph - N/A   Clear
4:15 PM 95.0 °F 102.5 °F 71.2 °F 46% 29.88 in 7.0 mi South 12.7 mph 19.6 mph N/A   Clear
4:35 PM 94.5 °F 102.6 °F 72.0 °F 48% 29.88 in 10.0 mi SSE 15.0 mph 18.4 mph N/A   Clear
4:55 PM 93.6 °F 103.2 °F 73.4 °F 52% 29.87 in 7.0 mi SSE 13.8 mph - N/A   Clear
5:15 PM 93.2 °F 103.0 °F 73.8 °F 53% 29.87 in 7.0 mi SSE 12.7 mph - N/A   Clear
5:35 PM 92.5 °F 101.9 °F 73.4 °F 54% 29.87 in 7.0 mi SSE 11.5 mph 17.3 mph N/A   Clear
5:55 PM 91.6 °F 100.5 °F 73.4 °F 55% 29.87 in 7.0 mi SSE 11.5 mph 19.6 mph N/A   Clear
6:15 PM 91.0 °F 99.3 °F 72.9 °F 55% 29.86 in 10.0 mi SSE 15.0 mph - N/A   Clear
6:35 PM 90.5 °F 98.1 °F 72.5 °F 55% 29.86 in 7.0 mi SE 13.8 mph 18.4 mph N/A   Clear
6:55 PM 89.4 °F 97.3 °F 72.9 °F 58% 29.86 in 7.0 mi SE 10.4 mph - N/A   Clear
7:15 PM 88.3 °F 96.4 °F 73.2 °F 61% 29.86 in 7.0 mi SSE 12.7 mph - N/A   Clear
7:35 PM 87.3 °F 95.3 °F 73.6 °F 64% 29.86 in 7.0 mi SSE 11.5 mph - N/A   Clear
7:55 PM 86.0 °F 94.6 °F 74.7 °F 69% 29.86 in 7.0 mi SSE 9.2 mph - N/A   Clear
8:15 PM 84.6 °F 92.8 °F 75.2 °F 73% 29.86 in 7.0 mi SE 8.1 mph - N/A   Clear
8:35 PM 83.3 °F 91.1 °F 75.4 °F 77% 29.86 in 10.0 mi SSE 5.8 mph - N/A   Clear
8:55 PM 82.2 °F 89.3 °F 75.4 °F 80% 29.86 in 10.0 mi SSE 3.5 mph - N/A   Clear
9:15 PM 81.0 °F 86.9 °F 75.4 °F 83% 29.87 in 7.0 mi SE 4.6 mph - N/A   Clear
9:35 PM 80.6 °F 86.2 °F 75.4 °F 84% 29.87 in 7.0 mi SE 4.6 mph - N/A   Clear
9:55 PM 80.1 °F 85.2 °F 75.4 °F 86% 29.89 in 7.0 mi SE 4.6 mph - N/A   Clear
10:15 PM 79.0 °F - 77.2 °F 94% 29.90 in 7.0 mi SE 4.6 mph - N/A   Clear
10:35 PM 78.8 °F - 78.8 °F 100% 29.91 in 7.0 mi ESE 3.5 mph - N/A   Clear
10:55 PM 78.6 °F - 78.6 °F 100% 29.91 in 7.0 mi ESE 3.5 mph - N/A   Clear
11:15 PM 78.3 °F - 78.3 °F 100% 29.92 in 7.0 mi Calm Calm - N/A   Clear
11:35 PM 77.9 °F - 77.9 °F 100% 29.92 in 7.0 mi Calm Calm - N/A   Clear
11:55 PM - - - N/A% 29.92 in 5.0 mi Calm Calm - N/A   Haze